Location: Unnamed
(54.5186°N, 36.2255°E)
Time: 17:12:54
(UTC+03:00)

ISS - Pass Details

Date: 20 February 2026
Orbit: 416 x 427 km, 51.6° (Epoch: 5 March)

Event Time Altitude Azimuth Distance (km) Brightness Sun altitude
Exits shadow 05:24:49 31° 159° (SSE) 765 -2.4 -21.0°
Maximum altitude 05:24:51 31° 158° (SSE) 765 -2.4 -21.0°
Drops below altitude 10° 05:27:51 10° 95° (E) 1,496 0.1 -20.6°
Sets 05:30:05 0° 85° (E) 2,360 1.7 -20.3°
